Location: Avully
(45.9633°N, 6.0228°E)
Time: 05:16:51
(UTC+00:00)

Cosmos 1408 - Pass Details

Date: 23 May 2024
Orbit: 362 x 376 km, 82.6° (Epoch: 19 June)

Event Time Altitude Azimuth Distance (km) Brightness Sun altitude
Rises 13:29:31 0° 340° (NNW) 2,232 5.8 55.1°
Reaches altitude 10° 13:31:41 10° 327° (NNW) 1,381 5.0 54.8°
Drops below altitude 10° 13:36:46 10° 210° (SSW) 1,382 5.6 54.1°
Enters shadow 14:07:50 -64° 171° (S) 11,885 9.2 49.4°
Exits shadow 14:43:07 -44° 8° (N) 9,363 8.6 43.7°
Maximum altitude 01:28:54 31° 93° (E) 666 3.5 -18.4°
